Location: Newark
(31.5350°N, 35.0986°E)
Time: 05:08:50
(UTC+00:00)

Vanguard 1 - Pass Details

Date: 24 September 2019
Orbit: 653 x 3830 km, 34.3° (Epoch: 14 October)

Event Time Altitude Azimuth Distance (km) Brightness Sun altitude
Rises 03:58:19 0° 287° (WNW) 7,805 14.0 5.5°
Reaches altitude 10° 04:04:04 10° 287° (WNW) 6,530 13.7 6.7°
Maximum altitude 04:23:30 74° 207° (SSW) 2,430 12.2 10.8°
Drops below altitude 10° 04:33:57 10° 123° (ESE) 3,765 14.5 13.0°
Sets 04:36:20 0° 121° (ESE) 4,451 14.8 13.5°
